SCP
0 0 0 0 0 0 0 0 0 0 0 0 0 0 0 0 0 0 0 0 0 0 0 0 0 0 0 0 0 0 0 0 0 0 0 0 0 0 0 0 0 0 0
0 0 0 0 0 0 0 0 0 0 0 0 0 0 0 0 0 0 0 0 0 0 0 0 0 0 0 0 0 0 0 0 0 0 0 0 0 0 0 0 0 0 0
0 0 0 0 0 0 0 0 0 0 0 0 0 0 0 0 0 0 0 0 0 0 0 0 0 0 0 0 0 0 0 0 0 0 0 0 0 0 0 0 0 0 0
0 0 0 0 0 0 0 0 0 0 0 0 0 0 0 0 0 0 0 0 0 0 0 0 0 0 0 0 0 0 0 0 0 0 0 0 0 0 0 0 0 0 0
0 0 0 0 0 0 0 0 0 0 0 0 0 0 0 0 0 0 0 0 0 0 0 0 0 0 0 0 0 0 0 0 0 0 0 0 0 0 0 0 0 0 0
0 0 0 0 0 0 0 0 0 0 0 0 0 0 0 0 0 0 0 0 0 0 0 0 0 0 0 0 0 0 0 0 0 0 0 0 0 0 0 0 0 0 0
0 0 0 0 0 0 0 0 0 0 0 0 0 0 0 0 0 0 0 0 0 0 0 0 0 0 0 0 0 0 0 0 0 0 0 0 0 0 0 0 0 0 0
0 0 0 0 0 0 0 0 0 0 0 0 0 0 0 0 0 0 0 0 0 0 0 0 0 0 0 0 0 0 0 0 0 0 0 0 0 0 0 0 0 0 0
0 0 0 0 0 0 0 0 0 0 0 0 0 0 0 0 0 0 0 0 0 0 0 0 0 0 0 0 0 0 0 0 0 0 0 0 0 0 0 0 0 0 0
0 0 0 0 0 0 0 0 0 0 0 0 0 0 0 0 0 0 0 0 0 0 0 0 0 0 0 0 0 0 0 0 0 0 0 0 0 0 0 0 -0 0 0
0 0 0 0 0 0 0 0 0 0 0 0 0 0 0 0 0 0 0 0 0 0 0 0 0 0 0 0 0 0 0 0 0 0 0 0 0 -0 -0 -0 -0 0 0
0 0 0 0 0 0 0 0 0 0 0 0 0 0 0 0 0 0 0 0 0 0 0 0 0 0 0 0 0 0 0 0 0 0 0 0 0 0 -0 -0 0 0 0
0 0 0 0 0 0 0 0 0 0 0 0 0 0 0 0 0 0 0 0 0 0 0 0 0 0 0 0 0 0 0 0 0 0 0 0 0 0 0 0 0 0 0
0 0 0 0 0 0 0 0 0 0 0 0 0 0 0 0 0 0 0 0 0 0 0 0 0 0 0 0 0 0 0 0 0 0 0 0 0 0 0 0 0 0 -0
0 0 0 0 0 0 0 0 0 0 0 0 0 0 0 0 0 0 0 0 0 0 0 0 0 0 0 0 0 0 0 0 0 0 0 0 0 0 0 0 0 -0 -0
0 0 0 0 0 0 0 0 0 0 0 0 0 0 0 0 0 0 0 0 0 0 0 0 0 0 0 0 0 0 0 0 0 0 0 0 0 0 0 0 0 -0 -0
0 0 0 0 0 0 0 0 0 0 0 0 0 0 0 0 0 0 0 0 0 0 0 0 0 0 0 0 0 0 0 0 0 0 0 0 0 0 0 0 0 -0 -0
0 0 0 0 0 0 0 0 0 0 0 0 0 0 0 0 0 0 0 0 0 0 0 0 0 0 0 0 0 0 0 0 0 0 0 0 0 0 0 0 -0 -0 0
0 0 0 0 0 0 0 0 0 0 0 0 0 0 0 0 0 0 0 0 0 0 0 0 0 0 0 0 0 0 0 0 0 0 0 0 0 0 0 0 -0 0 -0
0 0 0 0 0 0 0 0 0 0 0 0 0 0 0 0 0 0 0 0 0 0 0 0 0 0 0 0 0 0 0 0 0 0 0 0 0 0 0 0 0 0 0
0 0 0 0 0 0 0 0 0 0 0 0 0 0 0 0 0 0 0 0 0 0 0 0 0 0 0 0 0 0 0 0 0 0 0 0 0 0 0 0 0 0 0
0 0 0 0 0 0 0 0 0 0 0 0 0 0 0 0 0 0 0 0 0 0 0 0 0 0 0 0 0 0 0 0 0 0 0 0 0 0 0 0 0 0 0
0 0 0 0 0 0 0 0 0 0 0 0 0 0 0 0 0 0 0 0 0 0 0 0 0 0 0 0 0 0 0 0 0 0 0 0 0 0 0 0 0 0 0
0 0 0 0 0 0 0 0 0 0 0 0 0 0 0 0 0 0 0 0 0 0 0 0 0 0 0 0 0 0 0 0 0 0 0 0 0 0 0 0 0 0 0
0 0 0 0 0 0 0 0 0 0 0 0 0 0 0 0 0 0 0 0 0 0 0 0 0 0 0 0 0 0 0 0 0 0 0 0 0 0 0 0 0 0 0
0 0 0 0 0 0 0 0 0 0 0 0 0 0 0 0 0 0 0 0 0 0 0 0 0 0 0 0 0 0 0 0 0 0 0 0 0 0 0 0 0 0 0
Wind_Speed
11 12 11 11 10 9 7 5 4 2 1 0 2 2 2 3 3 2 2 3 4 4 4 5 5 5 5 7 8 7 9 8 7 9 11 9 10 12 11 9 12 16 18
11 12 12 11 11 10 8 6 5 3 1 1 1 2 3 3 3 2 2 3 4 5 6 5 5 5 5 7 7 7 7 9 7 9 12 12 11 8 11 11 13 14 14
12 12 13 12 10 9 9 7 5 3 2 1 1 3 3 3 2 3 2 3 5 5 5 5 5 5 5 6 7 7 8 10 9 5 7 10 12 13 10 10 11 12 12
9 11 14 13 12 9 9 8 6 4 3 2 2 2 3 3 3 2 3 4 4 5 5 6 6 6 5 6 7 8 7 9 10 8 5 7 9 11 14 9 7 12 13
9 10 13 13 11 10 9 8 6 5 4 3 2 3 3 3 3 3 4 4 4 5 6 6 5 6 6 7 7 7 8 7 8 9 9 10 9 9 10 14 12 10 9
9 8 10 11 10 10 9 7 6 6 5 4 4 4 3 4 5 5 4 4 3 4 6 6 5 6 6 7 7 7 9 7 8 8 9 10 9 9 9 10 12 12 11
9 9 11 12 12 11 9 8 7 7 6 5 4 3 4 4 5 4 4 5 4 4 5 6 6 6 7 7 7 7 8 8 8 8 8 9 9 10 10 10 11 12 11
8 10 11 12 12 12 10 9 8 7 6 5 4 3 4 3 3 4 4 4 4 4 6 6 7 8 8 8 6 6 8 7 7 10 9 8 9 9 9 9 10 11 9
9 10 11 11 12 12 11 10 9 7 6 5 4 4 3 3 4 4 4 4 4 5 6 7 7 7 7 7 7 6 9 7 7 8 8 7 8 9 9 9 9 9 9
10 10 11 11 11 11 10 9 8 7 6 5 5 4 4 5 4 4 5 5 5 5 7 7 7 7 7 6 6 7 8 8 7 7 8 8 8 9 9 9 9 8 8
11 11 11 11 10 10 9 8 8 7 6 6 5 4 4 4 4 5 5 5 5 6 6 7 7 7 7 6 6 8 10 9 8 8 8 10 10 8 8 9 8 8 7
10 10 11 11 10 11 10 9 8 8 7 6 5 4 4 5 5 5 5 5 6 6 6 7 7 8 8 7 8 10 10 10 10 9 9 10 10 10 9 9 10 9 8
9 10 10 11 12 11 10 10 9 8 7 6 5 5 5 5 4 4 5 5 6 6 6 6 7 8 8 8 9 10 11 11 10 10 10 10 9 10 10 11 10 9 8
10 11 11 11 11 11 11 10 9 8 8 7 6 5 5 4 3 4 5 6 6 6 7 7 7 8 8 10 11 11 12 11 11 11 11 10 10 11 11 11 10 9 8
10 12 12 12 12 12 11 10 9 9 8 7 6 6 4 2 3 5 6 6 6 8 7 7 8 8 9 10 13 11 10 10 10 10 10 10 14 17 15 12 10 9 6
11 12 13 13 14 14 12 11 10 9 8 7 7 5 4 4 4 5 6 7 7 7 7 7 8 10 11 21 26 18 7 7 9 8 8 8 10 16 22 25 22 16 10
11 13 15 15 14 14 13 12 10 9 9 8 7 6 5 5 5 6 7 7 7 7 7 7 8 11 14 25 25 24 11 7 7 7 6 7 9 14 10 15 15 15 19
10 13 13 13 12 12 12 11 10 10 9 8 7 7 6 6 5 6 7 7 7 7 6 7 9 10 14 24 25 23 9 6 6 6 5 6 6 11 14 7 7 7 9
10 11 12 12 12 13 13 12 11 11 10 9 8 8 7 6 6 7 7 7 7 6 6 7 8 9 12 21 24 19 5 5 6 6 6 8 6 18 21 10 9 10 8
6 8 10 12 13 14 14 14 13 12 12 11 9 8 8 7 7 7 7 6 6 6 6 6 7 8 9 18 23 19 3 5 5 5 6 12 15 19 20 9 9 12 8
7 9 11 12 13 14 15 15 14 14 12 10 9 8 8 8 7 6 5 5 6 6 5 6 6 7 10 16 20 20 5 5 5 6 5 7 19 20 20 16 9 14 13
8 10 11 11 12 15 16 15 15 12 11 10 9 8 7 7 6 5 5 5 5 5 5 5 6 5 8 13 16 20 17 13 5 6 6 9 19 19 19 14 17 20 16
10 10 10 11 12 15 16 17 14 12 12 11 10 8 7 7 6 5 5 4 4 3 3 4 5 5 5 8 18 19 18 18 9 7 15 17 19 17 12 16 20 16 9
11 10 11 13 15 16 16 14 13 14 13 12 10 8 8 7 6 5 4 4 3 3 3 4 5 6 6 6 7 6 7 11 10 7 11 17 17 14 14 13 11 8 8
10 11 14 16 16 16 16 13 14 15 14 12 10 9 8 6 5 5 4 4 4 4 4 3 3 5 6 9 17 12 8 7 7 7 4 5 6 7 7 7 7 7 8
10 13 16 16 16 16 16 15 16 16 15 13 11 8 7 6 5 4 3 6 6 8 8 7 6 6 10 16 16 16 16 15 15 9 6 7 8 9 9 9 8 8 9
Wind_Direction
197 184 173 159 152 153 162 169 166 153 131 66 332 316 318 306 301 293 322 344 330 320 306 305 305 307 305 304 305 308 308 306 305 310 308 301 295 293 296 303 316 309 311
194 180 170 164 165 168 167 167 164 150 160 132 277 261 273 274 271 283 341 328 313 302 306 302 299 298 300 302 304 307 305 309 314 310 310 310 307 297 306 310 302 307 315
196 181 173 171 170 172 164 161 144 175 189 150 261 288 290 291 315 343 325 301 298 297 295 293 292 295 297 296 299 301 309 310 307 293 297 305 307 309 298 295 298 303 303
199 181 174 174 173 164 141 141 155 192 187 184 245 288 290 296 302 297 283 294 300 303 300 293 294 296 293 292 298 311 302 304 307 306 282 274 285 297 304 300 293 298 300
201 184 172 171 164 146 141 148 165 195 186 193 234 257 273 284 292 296 296 301 302 299 298 296 301 296 292 290 293 299 298 298 299 305 303 296 288 278 287 299 305 302 299
189 173 156 153 143 137 140 151 180 196 185 202 227 242 269 287 298 303 304 302 295 294 298 304 304 297 293 291 293 297 300 298 299 303 301 298 294 291 284 287 295 298 297
171 163 155 156 150 149 153 164 190 201 189 199 221 239 258 270 278 291 294 298 295 296 296 308 297 292 290 293 296 302 301 300 306 308 307 303 296 291 284 280 284 288 290
173 170 166 162 158 160 163 173 193 197 184 196 219 234 253 258 263 276 283 286 284 284 289 296 292 291 294 304 304 304 302 302 304 308 308 308 306 302 294 285 283 286 290
181 172 166 164 165 167 169 178 187 189 185 195 214 231 249 266 267 276 278 274 275 290 297 294 291 293 298 301 310 304 299 297 297 299 300 304 306 305 301 296 291 285 295
181 174 172 172 169 166 168 174 181 186 181 191 214 224 234 250 261 272 274 276 282 290 292 292 293 295 299 304 310 304 297 296 294 297 300 303 303 304 305 304 303 297 293
182 178 175 171 163 158 162 171 181 182 184 196 207 227 246 256 263 266 270 279 286 290 293 295 296 299 299 298 296 293 295 292 293 296 300 300 302 301 307 306 307 307 303
173 171 168 165 164 165 169 179 183 182 187 189 195 223 245 255 260 267 278 286 289 289 291 294 299 301 299 291 284 286 292 286 286 288 291 293 300 301 302 301 303 302 298
164 167 169 173 174 173 177 183 183 180 178 179 196 224 242 252 264 281 291 293 291 291 293 296 296 292 290 288 282 277 278 276 275 277 280 284 289 294 294 294 294 295 300
174 177 181 181 178 178 181 182 180 174 174 180 196 221 238 253 278 296 295 290 288 290 290 289 288 291 292 285 279 275 274 271 269 271 274 276 279 282 285 292 292 294 295
184 188 188 184 180 180 181 180 177 171 173 180 197 216 231 268 289 287 284 282 282 288 285 287 290 293 291 281 276 270 268 268 267 269 271 275 295 309 311 312 308 304 298
199 195 191 187 186 183 181 178 175 170 168 181 195 203 218 242 259 269 273 276 278 281 283 283 287 292 294 299 306 313 291 277 273 272 272 281 302 309 320 318 319 327 319
205 197 195 194 188 183 178 178 173 163 168 181 190 197 210 235 253 269 277 279 281 280 281 280 282 286 291 304 313 322 325 301 295 283 284 302 311 319 300 306 326 326 321
208 198 193 190 180 172 169 167 164 166 173 182 191 197 206 227 246 261 270 274 273 273 274 276 280 284 294 310 318 328 334 309 298 292 291 292 296 304 315 335 324 306 303
205 193 185 177 171 169 167 164 168 170 177 189 194 195 200 217 236 251 260 265 270 276 276 277 282 288 301 315 323 337 323 310 307 304 311 317 305 313 334 347 327 314 306
187 173 167 167 171 170 164 169 175 179 189 192 191 190 195 209 227 242 254 264 274 278 284 290 293 298 303 318 329 339 322 310 311 310 315 325 322 328 340 345 327 319 329
184 167 167 175 177 168 167 178 182 191 190 179 179 187 197 210 225 241 256 273 280 288 295 302 305 306 313 326 329 336 338 316 317 316 314 310 323 335 341 344 332 338 352
188 176 177 180 173 171 175 184 191 186 170 170 177 187 198 213 223 233 254 263 277 294 305 312 309 305 315 327 330 338 344 349 336 322 312 310 329 340 343 342 343 352 350
197 186 182 180 179 180 183 190 187 169 166 169 178 187 199 210 214 223 242 258 271 280 297 305 309 315 318 323 334 339 344 347 346 329 334 337 341 342 337 338 348 352 341
199 188 184 190 192 188 190 191 174 167 167 174 180 187 197 206 212 219 222 229 246 264 281 295 307 314 314 311 316 321 329 338 334 329 332 338 339 341 338 341 341 340 342
198 191 198 201 198 189 190 185 172 168 171 176 181 187 193 196 207 216 214 219 217 226 248 250 274 302 308 314 331 340 333 329 327 341 331 326 330 335 335 335 337 339 343
198 200 206 206 198 190 189 185 175 172 173 178 183 185 187 193 199 206 233 258 247 256 270 275 283 297 309 323 336 339 340 342 350 357 338 338 339 338 338 338 339 341 345